• Join FlightAware (Why Join?)
  • Login
  • US Flag 
02:59PM EDT


 

Airport Tracker/Info


-or-


 

Live Flight TrackerFlight Track Log ✈ N400PU ✈ 30-Sep-2013 ✈ KLAF - KMDW

Flight Track Log - Related Links

Times and Time Zones

All times are in EDT time to prevent confusion due to time zone crossing. See the N400PU flight status page for this flight to view local times or setup timezone preferences in your user account.

Time Position Orientation Groundspeed Altitude Reporting Facility
EDT Latitude Longitude Course Direction KTS MPH feet Rate Location/Type
11:28AM 40.4158 -86.9719 280° West 186 214 1,800  Level Chicago Center
11:28AM 40.4239 -87.0297 280° West 217 250 4,100 2,940 Climbing Chicago Center
11:29AM 40.4278 -87.0467 287° West 239 275 4,800 3,060 Climbing Chicago Center
11:30AM 40.4867 -87.0842 334° Northwest 252 290 8,200 2,460 Climbing Chicago Center
11:31AM 40.5558 -87.0739 North 265 305 10,000 840 Climbing Chicago Center
11:32AM 40.6506 -87.1236 338° Northwest 314 361 10,000  Level Chicago Center
11:33AM 40.7344 -87.1661 339° North 321 369 10,000  Level Chicago Center
11:34AM 40.8194 -87.2097 339° North 327 376 10,000  Level Chicago Center
11:35AM 40.9033 -87.2544 338° Northwest 326 375 10,000  Level Chicago Center
11:36AM 40.9881 -87.2983 339° North 328 377 10,000  Level Chicago Center
11:37AM 41.0892 -87.3503 339° North 327 376 10,000 -180 Level Chicago Center
11:38AM 41.1606 -87.3878 338° Northwest 284 327 9,700 -840 Descending Chicago Center
11:39AM 41.2297 -87.4242 338° Northwest 271 312 8,300 -1,440 Descending Chicago Center
11:40AM 41.2975 -87.4597 338° Northwest 266 306 6,800 -1,620 Descending Chicago Center
11:41AM 41.3706 -87.4656 357° North 263 303 5,000 -1,380 Descending Chicago Center
11:42AM 41.4431 -87.4717 356° North 265 305 4,000 -540 Descending Chicago Center
11:43AM 41.5153 -87.4444 16° North 246 283 4,000  Level Chicago Center
11:44AM 41.5697 -87.4194 19° North 240 276 4,000  Level Chicago Center
11:45AM 41.5967 -87.4803 301° West 211 243 4,000  Level Chicago Center
11:46AM 41.6247 -87.5336 305° West 187 215 4,000  Level Chicago Center
11:47AM 41.6608 -87.5764 318° Northwest 179 206 4,000 -540 Level Chicago Center
11:48AM 41.7014 -87.6336 314° West 177 204 2,900 -1,020 Descending Chicago Center
11:49AM 41.7336 -87.6803 313° West 176 203 2,000 -840 Descending Chicago Center
11:50AM 41.7592 -87.7164 313° West 157 181 1,300 -540 Descending Chicago Center
11:51AM 41.7819 -87.7481 314° West 148 170 1,000 -300 Descending Chicago Center
11:53AM 41.7833 -87.7500 334° Northwest  Level FlightAware Approximate